Regional Weather Roundup
Issued by NWS Memphis, TN

Home | Current Version | Previous Version | Text Only | Print | Product List | Glossary On
Versions: 1 2 3 4 5 6 7 8 9 10 11 12 13 14 15 16 17 18 19 20 21 22 23 24 25 26 27 28 29 30 31 32 33 34 35 36 37 38 39 40 41 42 43 44 45 46 47 48 49 50
000
ASUS44 KMEG 192110
RWRMEG
MEMPHIS CWA HOURLY WEATHER ROUNDUP
NATIONAL WEATHER SERVICE MEMPHIS TN
300 PM CST FRI DEC 19 2014

...WEST TENNESSEE...

CITY           SKY/WX    TMP DP  RH WIND       PRES   REMARKS
MEMPHIS INTL   CLOUDY    45  34  65 NE9       30.19F
NWS MEMPHIS      N/A     43 N/A N/A MISG        N/A
JACKSON        PTSUNNY   43  30  60 E6        30.22F
LEXINGTON      MOSUNNY   39  28  65 NE5       30.21S
SAVANNAH       CLOUDY    41  28  60 N5        30.22S
DYERSBURG      PTSUNNY   43  21  42 NE8       30.24S
UNION CITY     CLOUDY    39  30  70 NE7       30.22F WCI  34
PARIS          MOSUNNY   39  27  60 NE7       30.22F WCI  34
HUNTINGDON     CLOUDY    39  26  60 N6        30.23F WCI  35


...EASTERN ARKANSAS...

CITY           SKY/WX    TMP DP  RH WIND       PRES   REMARKS
JONESBORO      CLOUDY    41  33  73 NE7       30.24R
WEST MEMPHIS   CLOUDY    44  36  73 E9        30.19F
BATESVILLE     CLOUDY    41  34  75 NE3       30.21F
NEWPORT        CLOUDY    41  36  82 NE13      30.24R
WALNUT RIDGE   CLOUDY    41  32  70 NE7       30.24S
BLYTHEVILLE    CLOUDY    41  31  67 NE10      30.23F
NW BLYTHEVILLE CLOUDY    41  32  70 NE8       30.23
SEARCY         LGT RAIN  41  36  82 E7        30.22F
STUTTGART      CLOUDY    43  37  81 N9        30.21R
PINE BLUFF     CLOUDY    46  38  73 N8        30.18F
MONTICELLO     LGT RAIN  46  43  89 VRB7      30.15F


...NORTH MISSISSIPPI...

CITY           SKY/WX    TMP DP  RH WIND       PRES   REMARKS
TUPELO         CLOUDY    45  36  70 NE10      30.18F
OXFORD         CLOUDY    43  34  70 NE8       30.19S
OLIVE BRANCH   CLOUDY    41  37  87 NE10      30.19F
TUNICA         CLOUDY    45  36  70 NE7       30.20F
CLARKSDALE     CLOUDY    45  39  81 N6        30.20R
CORINTH        CLOUDY    43  32  65 N6        30.20S
GRENADA        LGT RAIN  45  39  81 CALM      30.18S
GREENWOOD      LGT RAIN  47  45  93 NE6       30.17F
COLUMBUS       CLOUDY    48  37  65 N7        30.17F
STARKVILLE     MOCLDY    46  37  71 N3        30.17S
GOLDEN TRIANGL CLOUDY    48  37  66 N9        30.16F


...SOUTHEAST MISSOURI...

CITY           SKY/WX    TMP DP  RH WIND       PRES   REMARKS
WEST PLAINS    CLOUDY    35  32  88 E5        30.21F WCI  31
POPLAR BLUFF   CLOUDY    39  30  70 N8        30.24F WCI  33
CAPE GIRARDEAU CLOUDY    39  30  70 NE9       30.25F WCI  33


...NORTHWEST ALABAMA...

CITY           SKY/WX    TMP DP  RH WIND       PRES   REMARKS
MUSCLE SHOALS  CLOUDY    44  30  57 N6        30.20F


...MIDDLE TENNESSEE...

CITY           SKY/WX    TMP DP  RH WIND       PRES   REMARKS
NASHVILLE      CLOUDY    41  28  60 N6        30.23F
CLARKSVILLE    PTSUNNY   40  29  64 N6        30.24F


...WESTERN KENTUCKY...

CITY           SKY/WX    TMP DP  RH WIND       PRES   REMARKS
PADUCAH        PTSUNNY   41  29  62 VRB3      30.25F
FORT CAMPBELL  PTSUNNY   38  29  69 N3        30.24F


...CENTRAL ARKANSAS...

CITY           SKY/WX    TMP DP  RH WIND       PRES   REMARKS
LITTLE ROCK    CLOUDY    44  38  79 E6        30.21S


SKY/WX REPORTED AS FAIR MEANS FEW OR NO CLOUDS BELOW
12 THOUSAND FEET.




USA.gov is the U.S. government's official web portal to all federal, state and local government web resources and services.